Tabellarische Ansicht des 22.12.2012


Die einzelnen Werte des Tages

Uhrzeit Temperatur Luftdruck Luftfeuchte Wind Hi-Wind Taupunkt THW Index Wind Chill Heat Index Solar- strahlung Regen

00:00

-0.5 C

1014.2 hpa

92 %

4.8 km/h aus 116

9.7 km/h aus NE

-1.6 C

-2.2 C

-2.1 C

-0.6 C

0 W/m

0.00 mm

00:05

-0.5 C

1014.2 hpa

92 %

4.8 km/h aus 113

9.7 km/h aus NE

-1.6 C

-2.2 C

-2.1 C

-0.6 C

0 W/m

0.00 mm

00:10

-0.5 C

1014.2 hpa

92 %

3.2 km/h aus 118

6.4 km/h aus NE

-1.6 C

-1.2 C

-1.1 C

-0.6 C

0 W/m

0.00 mm

00:15

-0.5 C

1014.1 hpa

92 %

6.4 km/h aus 117

11.3 km/h aus NE

-1.6 C

-2.9 C

-2.8 C

-0.6 C

0 W/m

0.00 mm

00:20

-0.5 C

1014.1 hpa

92 %

4.8 km/h aus 117

11.3 km/h aus NE

-1.6 C

-2.2 C

-2.1 C

-0.6 C

0 W/m

0.00 mm

00:25

-0.5 C

1014.1 hpa

92 %

4.8 km/h aus 117

9.7 km/h aus NE

-1.6 C

-2.2 C

-2.1 C

-0.6 C

0 W/m

0.00 mm

00:30

-0.5 C

1014.1 hpa

92 %

4.8 km/h aus 117

14.5 km/h aus ENE

-1.6 C

-2.2 C

-2.1 C

-0.6 C

0 W/m

0.00 mm

00:35

-0.5 C

1014.1 hpa

92 %

4.8 km/h aus 115

9.7 km/h aus NE

-1.6 C

-2.2 C

-2.1 C

-0.6 C

0 W/m

0.00 mm

00:40

-0.5 C

1014.1 hpa

92 %

3.2 km/h aus 117

8.0 km/h aus NE

-1.6 C

-1.2 C

-1.1 C

-0.6 C

0 W/m

0.00 mm

00:45

-0.5 C

1014.2 hpa

92 %

4.8 km/h aus 117

9.7 km/h aus NE

-1.6 C

-2.2 C

-2.1 C

-0.6 C

0 W/m

0.00 mm

00:50

-0.5 C

1014.2 hpa

92 %

4.8 km/h aus 116

9.7 km/h aus NE

-1.6 C

-2.2 C

-2.1 C

-0.6 C

0 W/m

0.00 mm

00:55

-0.5 C

1014.2 hpa

92 %

4.8 km/h aus 117

8.0 km/h aus NE

-1.6 C

-2.2 C

-2.1 C

-0.6 C

0 W/m

0.00 mm

01:00

-0.5 C

1014.2 hpa

92 %

3.2 km/h aus 117

8.0 km/h aus NE

-1.6 C

-1.2 C

-1.1 C

-0.6 C

0 W/m

0.00 mm

01:05

-0.5 C

1014.2 hpa

92 %

3.2 km/h aus 117

8.0 km/h aus NE

-1.6 C

-1.2 C

-1.1 C

-0.6 C

0 W/m

0.00 mm

01:10

-0.5 C

1014.2 hpa

92 %

4.8 km/h aus 117

9.7 km/h aus NE

-1.6 C

-2.2 C

-2.1 C

-0.6 C

0 W/m

0.00 mm

01:15

-0.5 C

1014.2 hpa

92 %

3.2 km/h aus 117

6.4 km/h aus NE

-1.6 C

-1.2 C

-1.1 C

-0.6 C

0 W/m

0.00 mm

01:20

-0.5 C

1014.2 hpa

92 %

3.2 km/h aus 117

9.7 km/h aus NE

-1.6 C

-1.2 C

-1.1 C

-0.6 C

0 W/m

0.00 mm

01:25

-0.5 C

1014.2 hpa

92 %

3.2 km/h aus 117

8.0 km/h aus NE

-1.6 C

-1.2 C

-1.1 C

-0.6 C

0 W/m

0.00 mm

01:30

-0.5 C

1014.2 hpa

92 %

3.2 km/h aus 117

8.0 km/h aus NE

-1.6 C

-1.2 C

-1.1 C

-0.6 C

0 W/m

0.00 mm

01:35

-0.5 C

1014.2 hpa

92 %

3.2 km/h aus 116

8.0 km/h aus NE

-1.6 C

-1.2 C

-1.1 C

-0.6 C

0 W/m

0.00 mm

01:40

-0.5 C

1014.2 hpa

92 %

4.8 km/h aus 117

9.7 km/h aus NE

-1.6 C

-2.2 C

-2.1 C

-0.6 C

0 W/m

0.00 mm

01:45

-0.5 C

1014.2 hpa

92 %

4.8 km/h aus 117

9.7 km/h aus NE

-1.6 C

-2.2 C

-2.1 C

-0.6 C

0 W/m

0.00 mm

01:50

-0.5 C

1014.2 hpa

92 %

3.2 km/h aus 116

8.0 km/h aus NE

-1.6 C

-1.2 C

-1.1 C

-0.6 C

0 W/m

0.00 mm

01:55

-0.5 C

1014.2 hpa

92 %

3.2 km/h aus 116

6.4 km/h aus NE

-1.6 C

-1.2 C

-1.1 C

-0.6 C

0 W/m

0.00 mm

02:00

-0.5 C

1014.2 hpa

92 %

1.6 km/h aus 117

6.4 km/h aus NE

-1.6 C

-0.6 C

-0.5 C

-0.6 C

0 W/m

0.00 mm

02:05

-0.5 C

1014.2 hpa

92 %

3.2 km/h aus 116

8.0 km/h aus NE

-1.6 C

-1.2 C

-1.1 C

-0.6 C

0 W/m

0.00 mm

02:10

-0.4 C

1014.2 hpa

92 %

4.8 km/h aus 116

9.7 km/h aus NE

-1.6 C

-2.1 C

-2.0 C

-0.5 C

0 W/m

0.25 mm

02:15

-0.4 C

1014.2 hpa

92 %

4.8 km/h aus 116

9.7 km/h aus NE

-1.6 C

-2.1 C

-2.0 C

-0.5 C

0 W/m

0.00 mm

02:20

-0.4 C

1014.2 hpa

92 %

1.6 km/h aus 118

4.8 km/h aus NE

-1.6 C

-0.5 C

-0.4 C

-0.5 C

0 W/m

0.00 mm

02:25

-0.4 C

1014.2 hpa

92 %

3.2 km/h aus 117

6.4 km/h aus NE

-1.6 C

-1.1 C

-1.1 C

-0.5 C

0 W/m

0.00 mm

02:30

-0.4 C

1014.5 hpa

92 %

3.2 km/h aus 114

6.4 km/h aus NE

-1.6 C

-1.1 C

-1.1 C

-0.5 C

0 W/m

0.25 mm

02:35

-0.4 C

1014.5 hpa

92 %

1.6 km/h aus 116

6.4 km/h aus NE

-1.5 C

-0.4 C

-0.4 C

-0.4 C

0 W/m

0.00 mm

02:40

-0.3 C

1014.5 hpa

92 %

3.2 km/h aus 116

6.4 km/h aus NE

-1.5 C

-1.0 C

-0.9 C

-0.4 C

0 W/m

0.00 mm

02:45

-0.3 C

1014.4 hpa

92 %

6.4 km/h aus 117

14.5 km/h aus NE

-1.5 C

-2.6 C

-2.6 C

-0.4 C

0 W/m

0.00 mm

02:50

-0.3 C

1014.4 hpa

92 %

3.2 km/h aus 117

9.7 km/h aus NE

-1.5 C

-1.0 C

-0.9 C

-0.4 C

0 W/m

0.00 mm

02:55

-0.3 C

1014.4 hpa

92 %

6.4 km/h aus 117

9.7 km/h aus NE

-1.4 C

-2.6 C

-2.5 C

-0.3 C

0 W/m

0.25 mm

03:00

-0.3 C

1014.3 hpa

92 %

3.2 km/h aus 116

9.7 km/h aus NE

-1.4 C

-0.9 C

-0.9 C

-0.3 C

0 W/m

0.00 mm

03:05

-0.3 C

1014.3 hpa

92 %

4.8 km/h aus 117

11.3 km/h aus NE

-1.4 C

-1.8 C

-1.8 C

-0.3 C

0 W/m

0.00 mm

03:10

-0.3 C

1014.3 hpa

92 %

6.4 km/h aus 117

14.5 km/h aus NE

-1.4 C

-2.6 C

-2.5 C

-0.3 C

0 W/m

0.00 mm

03:15

-0.3 C

1014.2 hpa

92 %

3.2 km/h aus 117

9.7 km/h aus NE

-1.4 C

-0.9 C

-0.9 C

-0.3 C

0 W/m

0.00 mm

03:20

-0.3 C

1014.2 hpa

92 %

4.8 km/h aus 116

8.0 km/h aus NE

-1.4 C

-1.8 C

-1.8 C

-0.3 C

0 W/m

0.00 mm

03:25

-0.2 C

1014.2 hpa

92 %

4.8 km/h aus 118

11.3 km/h aus NE

-1.4 C

-1.8 C

-1.7 C

-0.3 C

0 W/m

0.25 mm

03:30

-0.2 C

1014.1 hpa

92 %

3.2 km/h aus 117

11.3 km/h aus NE

-1.4 C

-0.9 C

-0.8 C

-0.3 C

0 W/m

0.00 mm

03:35

-0.2 C

1014.1 hpa

92 %

1.6 km/h aus 117

8.0 km/h aus NE

-1.4 C

-0.3 C

-0.2 C

-0.3 C

0 W/m

0.00 mm

03:40

-0.2 C

1014.1 hpa

92 %

3.2 km/h aus 116

6.4 km/h aus NE

-1.4 C

-0.9 C

-0.8 C

-0.3 C

0 W/m

0.00 mm

03:45

-0.2 C

1014.2 hpa

92 %

3.2 km/h aus 117

8.0 km/h aus NE

-1.4 C

-0.9 C

-0.8 C

-0.3 C

0 W/m

0.00 mm

03:50

-0.2 C

1014.2 hpa

93 %

3.2 km/h aus 116

6.4 km/h aus NE

-1.2 C

-0.9 C

-0.8 C

-0.3 C

0 W/m

0.00 mm

03:55

-0.2 C

1014.2 hpa

93 %

4.8 km/h aus 117

8.0 km/h aus NE

-1.2 C

-1.8 C

-1.7 C

-0.3 C

0 W/m

0.00 mm

04:00

-0.2 C

1014.1 hpa

93 %

4.8 km/h aus 117

9.7 km/h aus NE

-1.2 C

-1.8 C

-1.7 C

-0.3 C

0 W/m

0.00 mm

04:05

-0.2 C

1014.1 hpa

93 %

3.2 km/h aus 117

8.0 km/h aus NE

-1.2 C

-0.9 C

-0.8 C

-0.3 C

0 W/m

0.00 mm

04:10

-0.2 C

1014.1 hpa

93 %

4.8 km/h aus 117

8.0 km/h aus NE

-1.2 C

-1.8 C

-1.7 C

-0.3 C

0 W/m

0.00 mm

04:15

-0.2 C

1014.0 hpa

93 %

1.6 km/h aus 117

6.4 km/h aus NE

-1.2 C

-0.2 C

-0.2 C

-0.2 C

0 W/m

0.00 mm

04:20

-0.2 C

1014.0 hpa

93 %

1.6 km/h aus 116

4.8 km/h aus NE

-1.2 C

-0.2 C

-0.2 C

-0.2 C

0 W/m

0.00 mm

04:25

-0.2 C

1014.0 hpa

93 %

3.2 km/h aus 117

6.4 km/h aus NE

-1.2 C

-0.8 C

-0.8 C

-0.2 C

0 W/m

0.00 mm

04:30

-0.2 C

1014.1 hpa

93 %

1.6 km/h aus 117

4.8 km/h aus NE

-1.2 C

-0.2 C

-0.2 C

-0.2 C

0 W/m

0.00 mm

04:35

-0.2 C

1014.1 hpa

93 %

1.6 km/h aus 117

6.4 km/h aus NE

-1.2 C

-0.2 C

-0.2 C

-0.2 C

0 W/m

0.00 mm

04:40

-0.2 C

1014.1 hpa

93 %

1.6 km/h aus 117

4.8 km/h aus NE

-1.2 C

-0.2 C

-0.2 C

-0.2 C

0 W/m

0.00 mm

04:45

-0.2 C

1013.8 hpa

93 %

1.6 km/h aus 117

4.8 km/h aus NE

-1.2 C

-0.2 C

-0.2 C

-0.2 C

0 W/m

0.25 mm

04:50

-0.1 C

1013.8 hpa

93 %

0.0 km/h aus 117

3.2 km/h aus NE

-1.1 C

-0.2 C

-0.1 C

-0.2 C

0 W/m

0.00 mm

04:55

-0.1 C

1013.8 hpa

93 %

1.6 km/h aus 116

4.8 km/h aus NE

-1.1 C

-0.2 C

-0.1 C

-0.2 C

0 W/m

0.00 mm

05:00

-0.1 C

1013.7 hpa

93 %

1.6 km/h aus 117

4.8 km/h aus NE

-1.1 C

-0.2 C

-0.1 C

-0.2 C

0 W/m

0.00 mm

05:05

-0.1 C

1013.7 hpa

93 %

3.2 km/h aus 116

4.8 km/h aus NE

-1.1 C

-0.7 C

-0.6 C

-0.1 C

0 W/m

0.00 mm

05:10

-0.1 C

1013.7 hpa

93 %

0.0 km/h aus 117

3.2 km/h aus NE

-1.1 C

-0.1 C

-0.1 C

-0.1 C

0 W/m

0.00 mm

05:15

-0.1 C

1013.5 hpa

93 %

1.6 km/h aus 117

4.8 km/h aus NE

-1.1 C

-0.1 C

-0.1 C

-0.1 C

0 W/m

0.00 mm

05:20

-0.1 C

1013.5 hpa

93 %

0.0 km/h aus 117

6.4 km/h aus NE

-1.1 C

-0.1 C

-0.1 C

-0.1 C

0 W/m

0.00 mm

05:25

0.0 C

1013.5 hpa

93 %

1.6 km/h aus 117

4.8 km/h aus NE

-1.0 C

-0.1 C

0.0 C

-0.1 C

0 W/m

0.00 mm

05:30

0.0 C

1013.3 hpa

93 %

0.0 km/h aus 117

4.8 km/h aus NE

-1.0 C

-0.1 C

0.0 C

-0.1 C

0 W/m

0.00 mm

05:35

0.0 C

1013.3 hpa

93 %

0.0 km/h aus 118

1.6 km/h aus NE

-1.0 C

-0.1 C

0.0 C

-0.1 C

0 W/m

0.00 mm

05:40

0.0 C

1013.3 hpa

93 %

1.6 km/h aus 116

3.2 km/h aus NE

-1.0 C

-0.1 C

0.0 C

-0.1 C

0 W/m

0.00 mm

05:45

0.0 C

1013.2 hpa

93 %

0.0 km/h aus 116

3.2 km/h aus NE

-1.0 C

-0.1 C

0.0 C

-0.1 C

0 W/m

0.00 mm

05:50

0.0 C

1013.2 hpa

93 %

0.0 km/h aus 117

1.6 km/h aus NE

-1.0 C

-0.1 C

0.0 C

-0.1 C

0 W/m

0.00 mm

05:55

0.1 C

1013.2 hpa

93 %

0.0 km/h aus 117

3.2 km/h aus NE

-0.9 C

0.0 C

0.1 C

0.0 C

0 W/m

0.00 mm

06:00

0.1 C

1013.2 hpa

93 %

0.0 km/h aus 117

1.6 km/h aus NE

-0.9 C

0.0 C

0.1 C

0.0 C

0 W/m

0.00 mm

06:05

0.1 C

1013.2 hpa

93 %

0.0 km/h aus 117

3.2 km/h aus NE

-0.9 C

0.0 C

0.1 C

0.0 C

0 W/m

0.00 mm

06:10

0.1 C

1013.2 hpa

93 %

1.6 km/h aus 117

3.2 km/h aus NE

-0.9 C

0.0 C

0.1 C

0.0 C

0 W/m

0.00 mm

06:15

0.1 C

1013.1 hpa

93 %

0.0 km/h aus 117

3.2 km/h aus NE

-0.9 C

0.0 C

0.1 C

0.0 C

0 W/m

0.00 mm

06:20

0.1 C

1013.1 hpa

93 %

0.0 km/h aus 117

1.6 km/h aus NE

-0.9 C

0.1 C

0.1 C

0.1 C

0 W/m

0.00 mm

06:25

0.1 C

1013.1 hpa

93 %

0.0 km/h aus 117

3.2 km/h aus NE

-0.9 C

0.1 C

0.1 C

0.1 C

0 W/m

0.00 mm

06:30

0.1 C

1013.2 hpa

93 %

0.0 km/h aus 117

3.2 km/h aus NE

-0.9 C

0.1 C

0.1 C

0.1 C

0 W/m

0.00 mm

06:35

0.2 C

1013.2 hpa

93 %

0.0 km/h aus 116

1.6 km/h aus NE

-0.8 C

0.1 C

0.2 C

0.1 C

0 W/m

0.00 mm

06:40

0.2 C

1013.2 hpa

93 %

0.0 km/h aus 117

3.2 km/h aus NE

-0.8 C

0.1 C

0.2 C

0.1 C

0 W/m

0.00 mm

06:45

0.2 C

1013.2 hpa

93 %

0.0 km/h aus 117

0.0 km/h aus ---

-0.8 C

0.1 C

0.2 C

0.1 C

0 W/m

0.00 mm

06:50

0.2 C

1013.2 hpa

93 %

0.0 km/h aus 117

1.6 km/h aus NE

-0.8 C

0.2 C

0.2 C

0.2 C

0 W/m

0.00 mm

06:55

0.2 C

1013.2 hpa

93 %

0.0 km/h aus 116

0.0 km/h aus ---

-0.8 C

0.2 C

0.2 C

0.2 C

0 W/m

0.00 mm

07:00

0.2 C

1013.3 hpa

93 %

0.0 km/h aus 117

0.0 km/h aus ---

-0.8 C

0.2 C

0.2 C

0.2 C

0 W/m

0.00 mm

07:05

0.3 C

1013.3 hpa

93 %

0.0 km/h aus 114

1.6 km/h aus NE

-0.7 C

0.2 C

0.3 C

0.2 C

0 W/m

0.00 mm

07:10

0.3 C

1013.3 hpa

93 %

0.0 km/h aus 116

1.6 km/h aus NE

-0.7 C

0.2 C

0.3 C

0.2 C

0 W/m

0.00 mm

07:15

0.3 C

1013.4 hpa

93 %

0.0 km/h aus 117

0.0 km/h aus ---

-0.7 C

0.2 C

0.3 C

0.2 C

0 W/m

0.25 mm

07:20

0.3 C

1013.4 hpa

93 %

0.0 km/h aus 117

0.0 km/h aus ---

-0.7 C

0.2 C

0.3 C

0.2 C

0 W/m

0.00 mm

07:25

0.3 C

1013.4 hpa

93 %

0.0 km/h aus 117

1.6 km/h aus NE

-0.7 C

0.2 C

0.3 C

0.2 C

0 W/m

0.00 mm

07:30

0.3 C

1013.5 hpa

93 %

0.0 km/h aus 116

0.0 km/h aus ---

-0.7 C

0.2 C

0.3 C

0.2 C

0 W/m

0.00 mm

07:35

0.3 C

1013.5 hpa

93 %

0.0 km/h aus 117

0.0 km/h aus ---

-0.7 C

0.2 C

0.3 C

0.2 C

0 W/m

0.25 mm

07:40

0.3 C

1013.5 hpa

93 %

0.0 km/h aus 117

0.0 km/h aus ---

-0.7 C

0.3 C

0.3 C

0.3 C

0 W/m

0.00 mm

07:45

0.3 C

1013.5 hpa

93 %

0.0 km/h aus 117

3.2 km/h aus NE

-0.7 C

0.3 C

0.3 C

0.3 C

0 W/m

0.00 mm

07:50

0.3 C

1013.5 hpa

93 %

0.0 km/h aus 117

3.2 km/h aus NE

-0.7 C

0.3 C

0.3 C

0.3 C

0 W/m

0.00 mm

07:55

0.3 C

1013.5 hpa

93 %

0.0 km/h aus 117

0.0 km/h aus ---

-0.7 C

0.3 C

0.3 C

0.3 C

0 W/m

0.00 mm

08:00

0.3 C

1013.3 hpa

93 %

0.0 km/h aus 117

0.0 km/h aus ---

-0.7 C

0.3 C

0.3 C

0.3 C

0 W/m

0.25 mm

08:05

0.3 C

1013.3 hpa

93 %

0.0 km/h aus 116

0.0 km/h aus ---

-0.7 C

0.3 C

0.3 C

0.3 C

0 W/m

0.00 mm

08:10

0.3 C

1013.3 hpa

93 %

0.0 km/h aus 116

0.0 km/h aus ---

-0.7 C

0.3 C

0.3 C

0.3 C

0 W/m

0.00 mm

08:15

0.3 C

1013.5 hpa

93 %

0.0 km/h aus 115

0.0 km/h aus ---

-0.7 C

0.3 C

0.3 C

0.3 C

0 W/m

0.00 mm

08:20

0.3 C

1013.5 hpa

93 %

0.0 km/h aus 117

0.0 km/h aus ---

-0.7 C

0.3 C

0.3 C

0.3 C

0 W/m

0.00 mm

08:25

0.3 C

1013.5 hpa

93 %

0.0 km/h aus 117

0.0 km/h aus ---

-0.7 C

0.3 C

0.3 C

0.3 C

0 W/m

0.25 mm

08:30

0.4 C

1013.5 hpa

93 %

0.0 km/h aus 116

0.0 km/h aus ---

-0.6 C

0.3 C

0.4 C

0.3 C

0 W/m

0.00 mm

08:35

0.4 C

1013.5 hpa

93 %

0.0 km/h aus 117

0.0 km/h aus ---

-0.6 C

0.3 C

0.4 C

0.3 C

0 W/m

0.00 mm

08:40

0.4 C

1013.5 hpa

93 %

0.0 km/h aus 117

0.0 km/h aus ---

-0.6 C

0.3 C

0.4 C

0.3 C

0 W/m

0.00 mm

08:45

0.4 C

1013.3 hpa

93 %

0.0 km/h aus 117

0.0 km/h aus ---

-0.6 C

0.3 C

0.4 C

0.3 C

0 W/m

0.00 mm

08:50

0.4 C

1013.3 hpa

93 %

0.0 km/h aus 116

0.0 km/h aus ---

-0.6 C

0.3 C

0.4 C

0.3 C

0 W/m

0.00 mm

08:55

0.4 C

1013.3 hpa

93 %

0.0 km/h aus 117

0.0 km/h aus ---

-0.6 C

0.4 C

0.4 C

0.4 C

0 W/m

0.00 mm

09:00

0.4 C

1013.6 hpa

93 %

0.0 km/h aus 117

0.0 km/h aus ---

-0.6 C

0.4 C

0.4 C

0.4 C

0 W/m

0.00 mm

09:05

0.5 C

1013.6 hpa

93 %

0.0 km/h aus 117

0.0 km/h aus ---

-0.5 C

0.4 C

0.5 C

0.4 C

0 W/m

0.00 mm

09:10

0.5 C

1013.6 hpa

93 %

0.0 km/h aus 117

1.6 km/h aus NE

-0.5 C

0.4 C

0.5 C

0.4 C

0 W/m

0.25 mm

09:15

0.5 C

1013.5 hpa

93 %

0.0 km/h aus 117

0.0 km/h aus ---

-0.5 C

0.4 C

0.5 C

0.4 C

0 W/m

0.00 mm

09:20

0.5 C

1013.5 hpa

93 %

0.0 km/h aus 116

0.0 km/h aus ---

-0.5 C

0.4 C

0.5 C

0.4 C

0 W/m

0.00 mm

09:25

0.5 C

1013.5 hpa

93 %

0.0 km/h aus 116

0.0 km/h aus ---

-0.5 C

0.4 C

0.5 C

0.4 C

0 W/m

0.00 mm

09:30

0.5 C

1013.6 hpa

93 %

0.0 km/h aus 117

0.0 km/h aus ---

-0.5 C

0.4 C

0.5 C

0.4 C

0 W/m

0.00 mm

09:35

0.5 C

1013.6 hpa

93 %

0.0 km/h aus 115

0.0 km/h aus ---

-0.5 C

0.4 C

0.5 C

0.4 C

0 W/m

0.00 mm

09:40

0.6 C

1013.6 hpa

93 %

0.0 km/h aus 116

0.0 km/h aus ---

-0.4 C

0.5 C

0.6 C

0.5 C

0 W/m

0.00 mm

09:45

0.6 C

1013.6 hpa

93 %

0.0 km/h aus 116

0.0 km/h aus ---

-0.4 C

0.5 C

0.6 C

0.5 C

0 W/m

0.00 mm

09:50

0.6 C

1013.6 hpa

93 %

0.0 km/h aus 117

0.0 km/h aus ---

-0.4 C

0.6 C

0.6 C

0.6 C

0 W/m

0.00 mm

09:55

0.6 C

1013.6 hpa

93 %

0.0 km/h aus 117

0.0 km/h aus ---

-0.4 C

0.6 C

0.6 C

0.6 C

0 W/m

0.00 mm

10:00

0.6 C

1013.3 hpa

93 %

0.0 km/h aus 116

0.0 km/h aus ---

-0.4 C

0.6 C

0.6 C

0.6 C

0 W/m

0.00 mm

10:05

0.6 C

1013.3 hpa

93 %

0.0 km/h aus 116

0.0 km/h aus ---

-0.4 C

0.6 C

0.6 C

0.6 C

0 W/m

0.00 mm

10:10

0.6 C

1013.3 hpa

93 %

0.0 km/h aus 117

0.0 km/h aus ---

-0.4 C

0.6 C

0.6 C

0.6 C

0 W/m

0.00 mm

10:15

0.7 C

1013.3 hpa

93 %

0.0 km/h aus 114

0.0 km/h aus ---

-0.3 C

0.6 C

0.7 C

0.6 C

0 W/m

0.00 mm

10:20

0.7 C

1013.3 hpa

93 %

0.0 km/h aus 117

0.0 km/h aus ---

-0.3 C

0.6 C

0.7 C

0.6 C

0 W/m

0.00 mm

10:25

0.7 C

1013.3 hpa

93 %

0.0 km/h aus 117

0.0 km/h aus ---

-0.3 C

0.7 C

0.7 C

0.7 C

0 W/m

0.00 mm

10:30

0.7 C

1013.6 hpa

93 %

0.0 km/h aus 117

0.0 km/h aus ---

-0.3 C

0.7 C

0.7 C

0.7 C

0 W/m

0.00 mm

10:35

0.8 C

1013.6 hpa

93 %

0.0 km/h aus 117

0.0 km/h aus ---

-0.2 C

0.7 C

0.8 C

0.7 C

0 W/m

0.00 mm

10:40

0.8 C

1013.6 hpa

93 %

0.0 km/h aus 117

0.0 km/h aus ---

-0.2 C

0.7 C

0.8 C

0.7 C

0 W/m

0.00 mm

10:45

0.8 C

1013.5 hpa

93 %

0.0 km/h aus 116

0.0 km/h aus ---

-0.2 C

0.8 C

0.8 C

0.8 C

0 W/m

0.00 mm

10:50

0.9 C

1013.5 hpa

94 %

0.0 km/h aus 115

1.6 km/h aus NE

0.0 C

0.8 C

0.9 C

0.8 C

0 W/m

0.00 mm

10:55

0.9 C

1013.5 hpa

94 %

0.0 km/h aus 118

0.0 km/h aus ---

0.1 C

0.9 C

0.9 C

0.9 C

0 W/m

0.00 mm

11:00

0.9 C

1013.2 hpa

94 %

0.0 km/h aus 117

0.0 km/h aus ---

0.1 C

0.9 C

0.9 C

0.9 C

0 W/m

0.00 mm

11:05

1.0 C

1013.2 hpa

94 %

0.0 km/h aus 116

1.6 km/h aus NE

0.1 C

0.9 C

1.0 C

0.9 C

0 W/m

0.00 mm

11:10

1.1 C

1013.2 hpa

93 %

0.0 km/h aus 117

1.6 km/h aus NE

0.1 C

1.0 C

1.1 C

1.0 C

0 W/m

0.00 mm

11:15

1.1 C

1013.1 hpa

93 %

0.0 km/h aus 117

0.0 km/h aus ---

0.1 C

1.0 C

1.1 C

1.0 C

0 W/m

0.00 mm

11:20

1.1 C

1013.1 hpa

93 %

0.0 km/h aus 114

1.6 km/h aus NE

0.1 C

1.1 C

1.1 C

1.1 C

0 W/m

0.00 mm

11:25

1.2 C

1013.1 hpa

93 %

1.6 km/h aus 117

3.2 km/h aus NE

0.2 C

1.1 C

1.2 C

1.1 C

0 W/m

0.00 mm

11:30

1.2 C

1013.0 hpa

94 %

0.0 km/h aus 116

3.2 km/h aus NE

0.4 C

1.2 C

1.2 C

1.2 C

0 W/m

0.00 mm

11:35

1.3 C

1013.0 hpa

94 %

0.0 km/h aus 117

3.2 km/h aus NE

0.4 C

1.2 C

1.3 C

1.2 C

0 W/m

0.00 mm

11:40

1.3 C

1013.0 hpa

94 %

1.6 km/h aus 117

3.2 km/h aus NE

0.5 C

1.3 C

1.3 C

1.3 C

0 W/m

0.00 mm

11:45

1.3 C

1012.8 hpa

94 %

1.6 km/h aus 116

3.2 km/h aus NE

0.5 C

1.3 C

1.3 C

1.3 C

0 W/m

0.00 mm

11:50

1.3 C

1012.8 hpa

94 %

0.0 km/h aus 115

4.8 km/h aus NE

0.5 C

1.3 C

1.3 C

1.3 C

0 W/m

0.00 mm

11:55

1.3 C

1012.8 hpa

94 %

0.0 km/h aus 116

1.6 km/h aus NE

0.5 C

1.3 C

1.3 C

1.3 C

0 W/m

0.00 mm

12:00

1.3 C

1012.6 hpa

94 %

0.0 km/h aus 117

1.6 km/h aus NE

0.5 C

1.3 C

1.3 C

1.3 C

0 W/m

0.00 mm

12:05

1.3 C

1012.6 hpa

94 %

1.6 km/h aus 115

3.2 km/h aus NE

0.5 C

1.3 C

1.3 C

1.3 C

0 W/m

0.00 mm

12:10

1.3 C

1012.6 hpa

94 %

1.6 km/h aus 117

3.2 km/h aus NE

0.5 C

1.3 C

1.3 C

1.3 C

0 W/m

0.00 mm

12:15

1.3 C

1012.2 hpa

94 %

0.0 km/h aus 117

3.2 km/h aus NE

0.5 C

1.3 C

1.3 C

1.3 C

0 W/m

0.00 mm

12:20

1.3 C

1012.2 hpa

94 %

0.0 km/h aus 117

1.6 km/h aus NE

0.5 C

1.3 C

1.3 C

1.3 C

0 W/m

0.00 mm

12:25

1.3 C

1012.2 hpa

94 %

0.0 km/h aus 115

1.6 km/h aus NE

0.5 C

1.3 C

1.3 C

1.3 C

0 W/m

0.00 mm

12:30

1.4 C

1012.1 hpa

94 %

0.0 km/h aus 117

0.0 km/h aus ---

0.5 C

1.3 C

1.4 C

1.3 C

0 W/m

0.00 mm

12:35

1.4 C

1012.1 hpa

94 %

0.0 km/h aus 116

0.0 km/h aus ---

0.6 C

1.4 C

1.4 C

1.4 C

0 W/m

0.00 mm

12:40

1.5 C

1012.1 hpa

94 %

0.0 km/h aus 116

0.0 km/h aus ---

0.6 C

1.5 C

1.5 C

1.5 C

0 W/m

0.00 mm

12:45

1.5 C

1012.0 hpa

94 %

0.0 km/h aus 115

0.0 km/h aus ---

0.6 C

1.5 C

1.5 C

1.5 C

0 W/m

0.00 mm

12:50

1.6 C

1012.0 hpa

94 %

0.0 km/h aus 116

0.0 km/h aus ---

0.7 C

1.6 C

1.6 C

1.6 C

0 W/m

0.00 mm

12:55

1.7 C

1012.0 hpa

94 %

0.0 km/h aus 116

0.0 km/h aus ---

0.8 C

1.7 C

1.7 C

1.7 C

0 W/m

0.00 mm

13:00

1.8 C

1011.9 hpa

94 %

0.0 km/h aus 117

0.0 km/h aus ---

0.9 C

1.8 C

1.8 C

1.8 C

0 W/m

0.00 mm

13:05

1.8 C

1011.9 hpa

94 %

0.0 km/h aus 116

0.0 km/h aus ---

1.0 C

1.8 C

1.8 C

1.8 C

0 W/m

0.00 mm

13:10

1.9 C

1011.9 hpa

94 %

0.0 km/h aus 117

0.0 km/h aus ---

1.1 C

1.9 C

1.9 C

1.9 C

0 W/m

0.00 mm

13:15

2.0 C

1011.6 hpa

94 %

0.0 km/h aus 117

0.0 km/h aus ---

1.1 C

2.0 C

2.0 C

2.0 C

0 W/m

0.00 mm

13:20

2.1 C

1011.6 hpa

94 %

0.0 km/h aus 116

0.0 km/h aus ---

1.2 C

2.1 C

2.1 C

2.1 C

0 W/m

0.00 mm

13:25

2.2 C

1011.6 hpa

94 %

0.0 km/h aus 117

0.0 km/h aus ---

1.4 C

2.2 C

2.2 C

2.2 C

0 W/m

0.00 mm

13:30

2.3 C

1011.4 hpa

94 %

0.0 km/h aus 117

1.6 km/h aus NE

1.5 C

2.3 C

2.3 C

2.3 C

0 W/m

0.00 mm

13:35

2.4 C

1011.4 hpa

94 %

1.6 km/h aus 117

3.2 km/h aus NE

1.5 C

2.4 C

2.4 C

2.4 C

0 W/m

0.00 mm

13:40

2.4 C

1011.4 hpa

94 %

3.2 km/h aus 117

4.8 km/h aus NE

1.6 C

2.1 C

2.1 C

2.4 C

0 W/m

0.00 mm

13:45

2.6 C

1011.4 hpa

94 %

3.2 km/h aus 117

6.4 km/h aus NE

1.7 C

2.2 C

2.2 C

2.6 C

0 W/m

0.00 mm

13:50

2.6 C

1011.4 hpa

94 %

1.6 km/h aus 87

4.8 km/h aus NE

1.7 C

2.6 C

2.6 C

2.6 C

0 W/m

0.00 mm

13:55

2.7 C

1011.4 hpa

94 %

1.6 km/h aus 116

4.8 km/h aus NE

1.8 C

2.7 C

2.7 C

2.7 C

0 W/m

0.00 mm

14:00

2.7 C

1011.1 hpa

94 %

1.6 km/h aus 117

6.4 km/h aus NE

1.9 C

2.7 C

2.7 C

2.7 C

0 W/m

0.00 mm

14:05

2.8 C

1011.1 hpa

94 %

1.6 km/h aus 118

6.4 km/h aus NE

1.9 C

2.8 C

2.8 C

2.8 C

0 W/m

0.00 mm

14:10

2.8 C

1011.1 hpa

94 %

0.0 km/h aus 116

3.2 km/h aus NE

2.0 C

2.8 C

2.8 C

2.8 C

0 W/m

0.00 mm

14:15

2.9 C

1011.1 hpa

94 %

0.0 km/h aus 116

1.6 km/h aus NE

2.1 C

2.9 C

2.9 C

2.9 C

0 W/m

0.00 mm

14:20

3.0 C

1011.1 hpa

94 %

3.2 km/h aus 116

4.8 km/h aus NE

2.1 C

2.7 C

2.7 C

3.0 C

0 W/m

0.00 mm

14:25

3.1 C

1011.1 hpa

94 %

3.2 km/h aus 117

6.4 km/h aus NE

2.2 C

2.8 C

2.8 C

3.1 C

0 W/m

0.00 mm

14:30

3.2 C

1011.0 hpa

94 %

3.2 km/h aus 117

6.4 km/h aus NE

2.3 C

2.9 C

2.9 C

3.2 C

0 W/m

0.00 mm

14:35

3.3 C

1011.0 hpa

94 %

3.2 km/h aus 117

4.8 km/h aus NE

2.4 C

3.1 C

3.1 C

3.3 C

0 W/m

0.00 mm

14:40

3.3 C

1011.0 hpa

94 %

4.8 km/h aus 117

6.4 km/h aus NE

2.5 C

2.3 C

2.3 C

3.3 C

0 W/m

0.00 mm

14:45

3.4 C

1011.0 hpa

94 %

4.8 km/h aus 116

8.0 km/h aus NE

2.6 C

2.4 C

2.4 C

3.4 C

0 W/m

0.00 mm

14:50

3.6 C

1011.0 hpa

94 %

4.8 km/h aus 116

6.4 km/h aus NE

2.7 C

2.6 C

2.6 C

3.6 C

0 W/m

0.00 mm

14:55

3.6 C

1011.0 hpa

94 %

3.2 km/h aus 116

6.4 km/h aus NE

2.7 C

3.4 C

3.4 C

3.6 C

0 W/m

0.00 mm

15:00

3.7 C

1010.8 hpa

94 %

3.2 km/h aus 117

6.4 km/h aus NE

2.8 C

3.5 C

3.5 C

3.7 C

0 W/m

0.00 mm

15:05

3.8 C

1010.8 hpa

94 %

4.8 km/h aus 116

9.7 km/h aus NE

2.9 C

2.8 C

2.8 C

3.8 C

0 W/m

0.00 mm

15:10

3.9 C

1010.8 hpa

94 %

4.8 km/h aus 118

11.3 km/h aus ESE

3.0 C

2.9 C

2.9 C

3.9 C

0 W/m

0.00 mm

15:15

4.0 C

1010.7 hpa

94 %

4.8 km/h aus 117

8.0 km/h aus ESE

3.1 C

3.1 C

3.1 C

4.0 C

0 W/m

0.00 mm

15:20

4.1 C

1010.7 hpa

94 %

4.8 km/h aus 116

9.7 km/h aus ESE

3.2 C

3.2 C

3.2 C

4.1 C

0 W/m

0.00 mm

15:25

4.2 C

1010.7 hpa

94 %

6.4 km/h aus 117

12.9 km/h aus SE

3.3 C

2.7 C

2.7 C

4.2 C

0 W/m

0.00 mm

15:30

4.3 C

1010.7 hpa

94 %

6.4 km/h aus 115

12.9 km/h aus SE

3.4 C

2.8 C

2.8 C

4.3 C

0 W/m

0.00 mm

15:35

4.3 C

1010.7 hpa

94 %

8.0 km/h aus 117

14.5 km/h aus SE

3.5 C

2.3 C

2.3 C

4.3 C

0 W/m

0.00 mm

15:40

4.4 C

1010.7 hpa

94 %

6.4 km/h aus 117

11.3 km/h aus SE

3.6 C

3.0 C

2.9 C

4.5 C

0 W/m

0.00 mm

15:45

4.4 C

1010.6 hpa

94 %

6.4 km/h aus 116

14.5 km/h aus SE

3.6 C

3.0 C

2.9 C

4.5 C

0 W/m

0.00 mm

15:50

4.5 C

1010.6 hpa

94 %

8.0 km/h aus 117

14.5 km/h aus SE

3.6 C

2.6 C

2.6 C

4.6 C

0 W/m

0.00 mm

15:55

4.5 C

1010.6 hpa

94 %

6.4 km/h aus 117

11.3 km/h aus ESE

3.6 C

3.1 C

3.0 C

4.6 C

0 W/m

0.00 mm

16:00

4.6 C

1010.5 hpa

94 %

8.0 km/h aus 116

16.1 km/h aus ESE

3.7 C

2.7 C

2.6 C

4.6 C

0 W/m

0.00 mm

16:05

4.6 C

1010.5 hpa

94 %

6.4 km/h aus 116

14.5 km/h aus ESE

3.7 C

3.1 C

3.1 C

4.6 C

0 W/m

0.00 mm

16:10

4.6 C

1010.5 hpa

94 %

6.4 km/h aus 117

11.3 km/h aus ESE

3.7 C

3.1 C

3.1 C

4.6 C

0 W/m

0.00 mm

16:15

4.5 C

1010.4 hpa

94 %

4.8 km/h aus 118

8.0 km/h aus ESE

3.6 C

3.7 C

3.6 C

4.6 C

0 W/m

0.00 mm

16:20

4.5 C

1010.4 hpa

94 %

4.8 km/h aus 117

9.7 km/h aus ESE

3.6 C

3.7 C

3.6 C

4.6 C

0 W/m

0.00 mm

16:25

4.4 C

1010.4 hpa

94 %

4.8 km/h aus 117

8.0 km/h aus ESE

3.6 C

3.6 C

3.6 C

4.5 C

0 W/m

0.00 mm

16:30

4.4 C

1010.0 hpa

94 %

4.8 km/h aus 117

9.7 km/h aus ESE

3.6 C

3.6 C

3.6 C

4.5 C

0 W/m

0.00 mm

16:35

4.4 C

1010.0 hpa

94 %

6.4 km/h aus 117

9.7 km/h aus ESE

3.6 C

3.0 C

2.9 C

4.5 C

0 W/m

0.00 mm

16:40

4.4 C

1010.0 hpa

94 %

4.8 km/h aus 117

11.3 km/h aus ESE

3.6 C

3.6 C

3.6 C

4.5 C

0 W/m

0.00 mm

16:45

4.5 C

1009.9 hpa

94 %

4.8 km/h aus 117

9.7 km/h aus ESE

3.6 C

3.7 C

3.6 C

4.6 C

0 W/m

0.00 mm

16:50

4.5 C

1009.9 hpa

94 %

6.4 km/h aus 117

11.3 km/h aus ESE

3.6 C

3.1 C

3.0 C

4.6 C

0 W/m

0.00 mm

16:55

4.5 C

1009.9 hpa

94 %

8.0 km/h aus 117

14.5 km/h aus ESE

3.6 C

2.6 C

2.6 C

4.6 C

0 W/m

0.00 mm

17:00

4.5 C

1009.5 hpa

94 %

6.4 km/h aus 116

14.5 km/h aus ESE

3.6 C

3.1 C

3.0 C

4.6 C

0 W/m

0.00 mm

17:05

4.5 C

1009.5 hpa

94 %

6.4 km/h aus 117

11.3 km/h aus ESE

3.6 C

3.1 C

3.0 C

4.6 C

0 W/m

0.00 mm

17:10

4.5 C

1009.5 hpa

94 %

8.0 km/h aus 115

16.1 km/h aus ESE

3.6 C

2.6 C

2.6 C

4.6 C

0 W/m

0.00 mm

17:15

4.5 C

1009.4 hpa

94 %

8.0 km/h aus 116

16.1 km/h aus ESE

3.6 C

2.6 C

2.6 C

4.6 C

0 W/m

0.00 mm

17:20

4.5 C

1009.4 hpa

94 %

9.7 km/h aus 116

16.1 km/h aus ESE

3.6 C

2.2 C

2.2 C

4.6 C

0 W/m

0.00 mm

17:25

4.5 C

1009.4 hpa

94 %

8.0 km/h aus 117

14.5 km/h aus ESE

3.6 C

2.6 C

2.6 C

4.6 C

0 W/m

0.00 mm

17:30

4.5 C

1008.9 hpa

94 %

8.0 km/h aus 117

14.5 km/h aus ESE

3.6 C

2.6 C

2.6 C

4.6 C

0 W/m

0.00 mm

17:35

4.5 C

1008.9 hpa

94 %

6.4 km/h aus 117

12.9 km/h aus ESE

3.6 C

3.1 C

3.0 C

4.6 C

0 W/m

0.00 mm

17:40

4.5 C

1008.9 hpa

94 %

8.0 km/h aus 117

14.5 km/h aus ESE

3.6 C

2.6 C

2.6 C

4.6 C

0 W/m

0.00 mm

17:45

4.5 C

1008.7 hpa

94 %

8.0 km/h aus 117

14.5 km/h aus ESE

3.6 C

2.6 C

2.6 C

4.6 C

0 W/m

0.00 mm

17:50

4.5 C

1008.7 hpa

94 %

6.4 km/h aus 117

11.3 km/h aus ESE

3.6 C

3.1 C

3.0 C

4.6 C

0 W/m

0.00 mm

17:55

4.5 C

1008.7 hpa

94 %

8.0 km/h aus 116

14.5 km/h aus SE

3.6 C

2.6 C

2.6 C

4.6 C

0 W/m

0.00 mm

18:00

4.5 C

1008.9 hpa

94 %

8.0 km/h aus 116

14.5 km/h aus ESE

3.6 C

2.6 C

2.6 C

4.6 C

0 W/m

0.00 mm

18:05

4.5 C

1008.9 hpa

94 %

6.4 km/h aus 115

12.9 km/h aus SE

3.6 C

3.1 C

3.0 C

4.6 C

0 W/m

0.00 mm

18:10

4.5 C

1008.9 hpa

94 %

8.0 km/h aus 117

17.7 km/h aus SE

3.6 C

2.6 C

2.6 C

4.6 C

0 W/m

0.00 mm

18:15

4.6 C

1008.9 hpa

94 %

9.7 km/h aus 117

19.3 km/h aus ESE

3.7 C

2.3 C

2.2 C

4.6 C

0 W/m

0.00 mm

18:20

4.6 C

1008.9 hpa

94 %

8.0 km/h aus 118

16.1 km/h aus ESE

3.7 C

2.7 C

2.6 C

4.6 C

0 W/m

0.00 mm

18:25

4.6 C

1008.9 hpa

94 %

9.7 km/h aus 116

16.1 km/h aus ESE

3.7 C

2.3 C

2.3 C

4.7 C

0 W/m

0.00 mm

18:30

4.6 C

1008.4 hpa

94 %

11.3 km/h aus 116

20.9 km/h aus ESE

3.7 C

2.0 C

1.9 C

4.7 C

0 W/m

0.00 mm

18:35

4.7 C

1008.4 hpa

94 %

8.0 km/h aus 117

14.5 km/h aus ESE

3.8 C

2.8 C

2.7 C

4.7 C

0 W/m

0.00 mm

18:40

4.7 C

1008.4 hpa

94 %

6.4 km/h aus 117

12.9 km/h aus ESE

3.8 C

3.3 C

3.2 C

4.7 C

0 W/m

0.00 mm

18:45

4.7 C

1008.4 hpa

94 %

9.7 km/h aus 117

19.3 km/h aus ESE

3.8 C

2.4 C

2.3 C

4.7 C

0 W/m

0.00 mm

18:50

4.7 C

1008.4 hpa

94 %

11.3 km/h aus 116

19.3 km/h aus ESE

3.8 C

2.1 C

2.1 C

4.8 C

0 W/m

0.00 mm

18:55

4.7 C

1008.4 hpa

94 %

11.3 km/h aus 116

17.7 km/h aus ESE

3.8 C

2.1 C

2.1 C

4.8 C

0 W/m

0.00 mm

19:00

4.8 C

1007.9 hpa

94 %

9.7 km/h aus 116

16.1 km/h aus ESE

3.9 C

2.6 C

2.5 C

4.8 C

0 W/m

0.00 mm

19:05

4.8 C

1007.9 hpa

94 %

9.7 km/h aus 117

20.9 km/h aus E

3.9 C

2.6 C

2.5 C

4.8 C

0 W/m

0.00 mm

19:10

4.8 C

1007.9 hpa

94 %

9.7 km/h aus 117

16.1 km/h aus ESE

3.9 C

2.6 C

2.6 C

4.9 C

0 W/m

0.00 mm

19:15

4.8 C

1007.7 hpa

94 %

8.0 km/h aus 117

14.5 km/h aus ESE

3.9 C

3.0 C

2.9 C

4.9 C

0 W/m

0.00 mm

19:20

4.8 C

1007.7 hpa

94 %

8.0 km/h aus 116

16.1 km/h aus E

3.9 C

3.0 C

2.9 C

4.9 C

0 W/m

0.00 mm

19:25

4.8 C

1007.7 hpa

94 %

8.0 km/h aus 117

14.5 km/h aus SE

3.9 C

3.0 C

2.9 C

4.9 C

0 W/m

0.00 mm

19:30

4.8 C

1007.7 hpa

94 %

9.7 km/h aus 115

17.7 km/h aus ESE

3.9 C

2.6 C

2.6 C

4.9 C

0 W/m

0.00 mm

19:35

4.8 C

1007.7 hpa

94 %

9.7 km/h aus 116

16.1 km/h aus ESE

3.9 C

2.6 C

2.6 C

4.9 C

0 W/m

0.00 mm

19:40

4.8 C

1007.7 hpa

94 %

8.0 km/h aus 116

17.7 km/h aus ESE

3.9 C

3.0 C

2.9 C

4.9 C

0 W/m

0.00 mm

19:45

4.8 C

1007.4 hpa

94 %

9.7 km/h aus 117

19.3 km/h aus ESE

3.9 C

2.6 C

2.6 C

4.9 C

0 W/m

0.00 mm

19:50

4.8 C

1007.4 hpa

94 %

8.0 km/h aus 116

16.1 km/h aus ESE

3.9 C

3.0 C

2.9 C

4.9 C

0 W/m

0.00 mm

19:55

4.8 C

1007.4 hpa

94 %

8.0 km/h aus 117

16.1 km/h aus SE

3.9 C

3.0 C

2.9 C

4.9 C

0 W/m

0.00 mm

20:00

4.8 C

1006.8 hpa

94 %

11.3 km/h aus 117

20.9 km/h aus ESE

3.9 C

2.2 C

2.2 C

4.9 C

0 W/m

0.00 mm

20:05

4.8 C

1006.8 hpa

94 %

12.9 km/h aus 117

19.3 km/h aus ESE

3.9 C

1.9 C

1.9 C

4.9 C

0 W/m

0.00 mm

20:10

4.8 C

1006.8 hpa

94 %

12.9 km/h aus 117

20.9 km/h aus ESE

3.9 C

1.9 C

1.9 C

4.9 C

0 W/m

0.00 mm

20:15

4.8 C

1006.8 hpa

94 %

11.3 km/h aus 117

19.3 km/h aus ESE

3.9 C

2.2 C

2.2 C

4.9 C

0 W/m

0.00 mm

20:20

4.8 C

1006.8 hpa

94 %

12.9 km/h aus 113

24.1 km/h aus E

3.9 C

1.9 C

1.9 C

4.9 C

0 W/m

0.25 mm

20:25

4.8 C

1006.8 hpa

94 %

11.3 km/h aus 117

19.3 km/h aus ESE

3.9 C

2.2 C

2.2 C

4.9 C

0 W/m

0.00 mm

20:30

4.8 C

1006.8 hpa

94 %

11.3 km/h aus 117

19.3 km/h aus SE

3.9 C

2.2 C

2.2 C

4.9 C

0 W/m

0.00 mm

20:35

4.9 C

1006.8 hpa

94 %

9.7 km/h aus 116

20.9 km/h aus ESE

4.0 C

2.7 C

2.6 C

4.9 C

0 W/m

0.00 mm

20:40

4.9 C

1006.8 hpa

94 %

9.7 km/h aus 117

17.7 km/h aus ESE

4.0 C

2.7 C

2.6 C

4.9 C

0 W/m

0.00 mm

20:45

4.9 C

1006.8 hpa

94 %

11.3 km/h aus 117

19.3 km/h aus E

4.0 C

2.3 C

2.3 C

4.9 C

0 W/m

0.00 mm

20:50

4.9 C

1006.8 hpa

94 %

11.3 km/h aus 117

20.9 km/h aus ESE

4.0 C

2.3 C

2.3 C

4.9 C

0 W/m

0.00 mm

20:55

4.9 C

1006.8 hpa

94 %

11.3 km/h aus 116

20.9 km/h aus E

4.0 C

2.3 C

2.3 C

4.9 C

0 W/m

0.00 mm

21:00

4.9 C

1006.3 hpa

94 %

8.0 km/h aus 116

16.1 km/h aus ESE

4.1 C

3.1 C

3.1 C

5.0 C

0 W/m

0.00 mm

21:05

4.9 C

1006.3 hpa

94 %

8.0 km/h aus 113

16.1 km/h aus ESE

4.1 C

3.1 C

3.1 C

5.0 C

0 W/m

0.00 mm

21:10

4.9 C

1006.3 hpa

94 %

8.0 km/h aus 117

14.5 km/h aus ESE

4.1 C

3.1 C

3.1 C

5.0 C

0 W/m

0.00 mm

21:15

4.9 C

1006.3 hpa

94 %

8.0 km/h aus 117

17.7 km/h aus ESE

4.1 C

3.1 C

3.1 C

5.0 C

0 W/m

0.00 mm

21:20

4.9 C

1006.3 hpa

94 %

8.0 km/h aus 117

16.1 km/h aus ESE

4.0 C

3.1 C

3.0 C

4.9 C

0 W/m

0.00 mm

21:25

4.9 C

1006.3 hpa

95 %

11.3 km/h aus 115

20.9 km/h aus ENE

4.2 C

2.4 C

2.3 C

5.0 C

0 W/m

0.00 mm

21:30

4.9 C

1006.2 hpa

95 %

9.7 km/h aus 117

20.9 km/h aus ESE

4.2 C

2.7 C

2.7 C

5.0 C

0 W/m

0.00 mm

21:35

4.9 C

1006.2 hpa

95 %

11.3 km/h aus 118

19.3 km/h aus ESE

4.2 C

2.4 C

2.3 C

5.0 C

0 W/m

0.25 mm

21:40

5.0 C

1006.2 hpa

95 %

11.3 km/h aus 117

19.3 km/h aus E

4.3 C

2.4 C

2.4 C

5.1 C

0 W/m

0.00 mm

21:45

5.1 C

1006.1 hpa

94 %

9.7 km/h aus 117

16.1 km/h aus E

4.2 C

2.8 C

2.8 C

5.1 C

0 W/m

0.00 mm

21:50

5.1 C

1006.1 hpa

94 %

9.7 km/h aus 116

19.3 km/h aus ESE

4.2 C

2.8 C

2.8 C

5.1 C

0 W/m

0.00 mm

21:55

5.1 C

1006.1 hpa

94 %

11.3 km/h aus 116

19.3 km/h aus E

4.2 C

2.5 C

2.4 C

5.1 C

0 W/m

0.00 mm

22:00

5.1 C

1005.8 hpa

94 %

8.0 km/h aus 117

17.7 km/h aus E

4.2 C

3.2 C

3.2 C

5.1 C

0 W/m

0.00 mm

22:05

5.1 C

1005.8 hpa

94 %

9.7 km/h aus 116

17.7 km/h aus E

4.2 C

2.8 C

2.8 C

5.1 C

0 W/m

0.00 mm

22:10

5.1 C

1005.8 hpa

94 %

9.7 km/h aus 117

17.7 km/h aus E

4.2 C

2.8 C

2.8 C

5.1 C

0 W/m

0.25 mm

22:15

5.1 C

1005.6 hpa

94 %

11.3 km/h aus 117

20.9 km/h aus ENE

4.2 C

2.5 C

2.4 C

5.1 C

0 W/m

0.00 mm

22:20

5.1 C

1005.6 hpa

94 %

9.7 km/h aus 117

20.9 km/h aus E

4.2 C

2.8 C

2.8 C

5.1 C

0 W/m

0.00 mm

22:25

5.1 C

1005.6 hpa

94 %

11.3 km/h aus 117

20.9 km/h aus ESE

4.2 C

2.5 C

2.4 C

5.1 C

0 W/m

0.00 mm

22:30

5.1 C

1005.4 hpa

94 %

12.9 km/h aus 117

22.5 km/h aus ESE

4.2 C

2.2 C

2.2 C

5.1 C

0 W/m

0.00 mm

22:35

5.1 C

1005.4 hpa

94 %

12.9 km/h aus 117

25.7 km/h aus E

4.2 C

2.2 C

2.2 C

5.1 C

0 W/m

0.00 mm

22:40

5.1 C

1005.4 hpa

94 %

14.5 km/h aus 117

25.7 km/h aus ESE

4.2 C

2.0 C

1.9 C

5.2 C

0 W/m

0.25 mm

22:45

5.1 C

1005.0 hpa

95 %

14.5 km/h aus 117

27.4 km/h aus E

4.4 C

2.0 C

1.9 C

5.2 C

0 W/m

0.00 mm

22:50

5.1 C

1005.0 hpa

95 %

14.5 km/h aus 117

22.5 km/h aus E

4.4 C

2.0 C

1.9 C

5.2 C

0 W/m

0.00 mm

22:55

5.1 C

1005.0 hpa

95 %

14.5 km/h aus 117

25.7 km/h aus E

4.4 C

2.0 C

1.9 C

5.2 C

0 W/m

0.00 mm

23:00

5.1 C

1004.7 hpa

95 %

12.9 km/h aus 117

22.5 km/h aus ESE

4.4 C

2.3 C

2.2 C

5.2 C

0 W/m

0.00 mm

23:05

5.1 C

1004.7 hpa

95 %

11.3 km/h aus 116

24.1 km/h aus E

4.4 C

2.6 C

2.5 C

5.2 C

0 W/m

0.00 mm

23:10

5.1 C

1004.7 hpa

95 %

14.5 km/h aus 117

25.7 km/h aus ESE

4.4 C

2.0 C

1.9 C

5.2 C

0 W/m

0.00 mm

23:15

5.1 C

1004.2 hpa

94 %

14.5 km/h aus 117

24.1 km/h aus ENE

4.2 C

1.9 C

1.9 C

5.1 C

0 W/m

0.00 mm

23:20

5.1 C

1004.2 hpa

94 %

11.3 km/h aus 116

25.7 km/h aus E

4.2 C

2.5 C

2.4 C

5.1 C

0 W/m

0.00 mm

23:25

5.1 C

1004.2 hpa

94 %

16.1 km/h aus 117

24.1 km/h aus ESE

4.2 C

1.7 C

1.6 C

5.1 C

0 W/m

0.00 mm

23:30

5.1 C

1004.2 hpa

94 %

16.1 km/h aus 117

25.7 km/h aus ESE

4.2 C

1.7 C

1.6 C

5.1 C

0 W/m

0.00 mm

23:35

5.0 C

1004.2 hpa

94 %

16.1 km/h aus 117

27.4 km/h aus ESE

4.1 C

1.6 C

1.6 C

5.1 C

0 W/m

0.00 mm

23:40

5.0 C

1004.2 hpa

94 %

16.1 km/h aus 118

30.6 km/h aus ESE

4.1 C

1.6 C

1.6 C

5.1 C

0 W/m

0.00 mm

23:45

5.0 C

1004.1 hpa

94 %

12.9 km/h aus 117

22.5 km/h aus ESE

4.1 C

2.2 C

2.1 C

5.1 C

0 W/m

0.25 mm

23:50

5.0 C

1004.1 hpa

94 %

16.1 km/h aus 117

27.4 km/h aus ESE

4.1 C

1.6 C

1.6 C

5.1 C

0 W/m

0.00 mm

23:55

4.9 C

1004.1 hpa

94 %

14.5 km/h aus 117

27.4 km/h aus ESE

4.1 C

1.8 C

1.8 C

5.0 C

0 W/m

0.25 mm